Satellite: NO-44
Catalog number: 26931
Epoch time:      11138.79888323
Element set:     754
Inclination:      067.0530 deg
RA of node:       059.2516 deg
Eccentricity:    0.0007037
Arg of perigee:   262.5985 deg
Mean anomaly:     097.4328 deg
Mean motion:   14.29657515 rev/day
Decay rate:       -1.3e-07 rev/day^2
Epoch rev:           50272
Checksum:              320

Satellite: SO-50
Catalog number: 27607
Epoch time:      11138.84696373
Element set:    0469
Inclination:      064.5589 deg
RA of node:       056.8310 deg
Eccentricity:    0.0069627
Arg of perigee:   327.7588 deg
Mean anomaly:     031.9260 deg
Mean motion:   14.71739249 rev/day
Decay rate:       1.93e-06 rev/day^2
Epoch rev:           45177
Checksum:              351

Satellite: CO-55
Catalog number: 27844
Epoch time:      11139.51511685
Element set:     112
Inclination:      098.7057 deg
RA of node:       148.6331 deg
Eccentricity:    0.0009017
Arg of perigee:   284.8470 deg
Mean anomaly:     075.1704 deg
Mean motion:   14.20807775 rev/day
Decay rate:       1.42e-06 rev/day^2
Epoch rev:           40884
Checksum:              304

Satellite: CO-57
Catalog number: 27848
Epoch time:      11138.53844666
Element set:      61
Inclination:      098.7122 deg
RA of node:       146.8503 deg
Eccentricity:    0.0008986
Arg of perigee:   293.2539 deg
Mean anomaly:     066.7686 deg
Mean motion:   14.20587604 rev/day
Decay rate:       1.37e-06 rev/day^2
Epoch rev:           40865
Checksum:              344

Satellite: AO-51
Catalog number: 28375
Epoch time:      11138.52587482
Element set:    0973
Inclination:      098.0958 deg
RA of node:       118.5356 deg
Eccentricity:    0.0083526
Arg of perigee:   159.3838 deg
Mean anomaly:     201.0747 deg
Mean motion:   14.40755705 rev/day
Decay rate:       1.11e-06 rev/day^2
Epoch rev:           36179
Checksum:              332

Satellite: CP3
Catalog number: 31129
Epoch time:      11138.66486859
Element set:    0872
Inclination:      097.8998 deg
RA of node:       164.5819 deg
Eccentricity:    0.0100905
Arg of perigee:   272.8707 deg
Mean anomaly:     086.0936 deg
Mean motion:   14.52474695 rev/day
Decay rate:       1.93e-06 rev/day^2
Epoch rev:           21655
Checksum:              354

Satellite: CO-65
Catalog number: 32785
Epoch time:      11138.70806376
Element set:    0994
Inclination:      097.8511 deg
RA of node:       203.1617 deg
Eccentricity:    0.0013631
Arg of perigee:   272.4604 deg
Mean anomaly:     087.5029 deg
Mean motion:   14.81983897 rev/day
Decay rate:       4.85e-06 rev/day^2
Epoch rev:           16517
Checksum:              335

Satellite: KKS-1
Catalog number: 33493
Epoch time:      11139.72960722
Element set:     594
Inclination:      098.1202 deg
RA of node:       267.9323 deg
Eccentricity:    0.0020882
Arg of perigee:   131.1505 deg
Mean anomaly:     229.1517 deg
Mean motion:   14.81666085 rev/day
Decay rate:      1.341e-05 rev/day^2
Epoch rev:           12530
Checksum:              282

Satellite: SOHLA-1
Catalog number: 33496
Epoch time:      11138.90947730
Element set:    0425
Inclination:      098.0778 deg
RA of node:       249.0413 deg
Eccentricity:    0.0005824
Arg of perigee:   209.9676 deg
Mean anomaly:     150.1196 deg
Mean motion:   14.69612652 rev/day
Decay rate:       1.68e-06 rev/day^2
Epoch rev:           12418
Checksum:              316

Satellite: TISAT-1
Catalog number: 36799
Epoch time:      11139.68431486
Element set:     869
Inclination:      098.1032 deg
RA of node:       207.6494 deg
Eccentricity:    0.0015663
Arg of perigee:   014.5353 deg
Mean anomaly:     345.6315 deg
Mean motion:   14.80534596 rev/day
Decay rate:       8.52e-06 rev/day^2
Epoch rev:            4609
Checksum:              326

Satellite: STUDSAT
Catalog number: 36801
Epoch time:      11138.81502646
Element set:    0194
Inclination:      098.1091 deg
RA of node:       206.6280 deg
Eccentricity:    0.0013841
Arg of perigee:   005.9157 deg
Mean anomaly:     354.2215 deg
Mean motion:   14.80556498 rev/day
Decay rate:      2.059e-05 rev/day^2
Epoch rev:           04595
Checksum:              293

Satellite: RAX
Catalog number: 37223
Epoch time:      11089.46431449
Element set:    0122
Inclination:      071.9716 deg
RA of node:       212.4675 deg
Eccentricity:    0.0019443
Arg of perigee:   068.5267 deg
Mean anomaly:     291.7923 deg
Mean motion:   14.77296529 rev/day
Decay rate:       6.60e-06 rev/day^2
Epoch rev:           01926
Checksum:              313

Satellite: OOREOS
Catalog number: 37224
Epoch time:      11076.42207246
Element set:    0109
Inclination:      071.9712 deg
RA of node:       241.3960 deg
Eccentricity:    0.0017800
Arg of perigee:   096.5373 deg
Mean anomaly:     263.7815 deg
Mean motion:   14.76929834 rev/day
Decay rate:       8.68e-06 rev/day^2
Epoch rev:           01732
Checksum:              300

Satellite: FO-69
Catalog number: 37227
Epoch time:      11139.33290920
Element set:    0030
Inclination:      071.9683 deg
RA of node:       102.8873 deg
Eccentricity:    0.0017677
Arg of perigee:   330.1340 deg
Mean anomaly:     029.8821 deg
Mean motion:   14.76581304 rev/day
Decay rate:       1.96e-06 rev/day^2
Epoch rev:           00506
Checksum:              293

